GFSSW_925_thetae_276.txt.gz
Theta_e
304 303 306 306 306 306 307 307 300 301 298 297 300 306 304 307 311 311 310 312 314 311 310 310 310 309 311 312 312 313 315 310 308 309 309 309 308 307 307 307 307 308 308 310 310
304 302 302 303 302 300 304 303 298 299 298 298 301 306 306 305 309 310 308 309 309 310 309 310 310 311 311 311 311 311 312 308 309 309 309 309 308 308 308 308 308 309 310 310 310
304 301 300 300 299 300 301 299 297 297 298 301 303 306 306 306 311 309 307 309 310 311 309 309 310 311 310 309 309 309 310 309 310 310 308 309 309 309 309 310 310 311 310 310 312
304 300 299 299 299 299 300 298 297 297 300 301 306 306 306 310 317 307 307 310 311 311 311 311 312 311 309 309 308 310 310 311 311 311 310 309 309 310 309 311 310 309 310 309 307
304 300 299 299 299 298 298 297 297 297 301 303 307 307 309 312 309 306 307 311 311 311 310 311 311 310 309 309 310 310 310 310 310 311 310 309 310 310 311 309 309 309 306 306 305
303 300 300 300 299 298 297 297 297 298 301 306 305 306 310 313 305 306 309 311 311 311 310 310 310 309 309 310 310 309 310 310 310 312 311 311 312 312 311 311 311 309 307 307 307
303 301 300 300 299 298 297 297 297 299 303 306 305 308 309 307 306 306 308 311 310 310 311 310 310 311 311 311 309 309 311 310 311 312 312 312 315 313 312 311 310 308 307 306 308
303 301 300 300 299 297 297 297 298 301 305 305 305 309 308 305 305 306 308 311 311 310 310 310 310 311 310 309 309 311 313 318 312 311 312 313 317 312 311 310 310 309 307 306 306
303 301 301 301 298 297 297 297 301 303 303 305 309 308 309 305 307 305 307 310 311 311 310 309 311 311 312 316 318 318 317 315 316 312 313 313 314 312 310 310 309 308 307 306 305
303 302 302 300 298 297 297 299 300 301 301 300 303 308 305 307 306 305 307 308 312 311 314 314 314 314 313 319 320 317 317 316 316 313 311 313 314 312 310 310 308 308 307 306 305
304 303 303 300 297 297 298 300 305 305 302 303 304 306 306 305 306 307 307 309 311 312 315 314 317 314 312 311 312 312 310 310 315 313 312 315 312 313 311 310 309 308 306 305 305
304 303 303 300 297 297 299 303 303 304 304 302 303 304 304 304 308 308 308 312 312 313 311 315 314 311 311 311 313 311 314 314 312 314 313 309 309 314 312 312 309 307 305 305 304
305 304 304 300 297 298 303 302 298 301 307 303 303 305 305 305 308 308 308 311 312 312 313 315 313 311 313 314 313 314 314 312 312 313 314 313 314 310 314 313 310 307 306 305 303
306 305 304 298 298 302 303 298 298 301 318 304 303 304 305 307 308 306 305 309 311 312 312 312 311 312 313 313 310 313 311 310 312 314 314 310 313 316 315 314 312 308 305 304 303
307 305 304 298 303 301 303 298 299 306 319 303 303 302 305 308 307 308 305 309 311 311 311 311 311 311 312 310 309 312 310 311 312 315 313 310 312 316 316 316 312 307 305 303 302
307 305 304 297 300 302 298 297 305 314 314 301 304 307 307 306 306 307 307 307 307 309 309 309 308 309 308 308 308 308 310 314 314 313 314 308 312 316 315 315 313 307 304 302 301
308 306 299 300 303 298 297 304 310 315 303 303 305 306 307 306 307 309 309 310 314 310 311 308 310 307 306 308 309 310 311 317 315 314 313 307 310 314 313 313 310 306 304 301 300
307 305 299 299 299 297 303 306 309 313 307 301 304 305 307 306 306 308 309 309 307 308 311 314 315 308 306 308 309 310 310 311 314 313 308 307 309 312 311 311 307 304 304 302 300
307 302 297 296 297 299 305 308 312 310 305 304 304 307 306 304 305 307 310 310 307 307 316 311 309 307 307 307 308 311 310 308 311 303 310 308 308 308 309 309 309 306 304 302 299
302 299 299 296 297 301 302 308 305 300 302 304 310 308 307 305 306 308 308 307 307 306 306 306 311 306 308 307 307 310 307 311 310 307 309 307 306 305 307 309 308 306 303 301 300
300 302 298 297 298 301 304 304 301 298 300 303 307 300 309 304 308 309 308 304 306 306 306 307 309 308 307 308 307 309 310 307 306 307 309 307 306 306 309 307 309 306 303 300 299
300 302 297 296 302 299 303 300 298 297 300 301 302 304 306 303 307 308 305 305 304 305 308 307 309 310 308 306 306 307 308 308 308 308 306 307 303 306 307 307 309 306 303 300 299
299 299 297 296 302 302 295 296 296 298 300 301 301 302 303 304 302 305 305 301 302 305 307 307 307 308 312 309 305 307 308 308 307 305 308 309 309 306 306 307 309 304 302 300 298
299 301 299 297 302 303 299 299 297 296 300 300 301 301 302 300 298 302 304 301 299 304 303 304 306 310 312 309 306 308 307 307 307 308 310 306 305 304 304 305 305 305 301 300 298
298 302 298 297 298 303 303 299 298 296 298 299 300 302 302 299 301 300 302 300 300 304 303 303 301 299 302 303 303 303 303 306 307 306 305 307 305 305 304 304 304 304 302 300 299
300 300 297 300 298 303 304 300 300 300 298 298 300 301 303 301 304 301 302 301 301 302 303 301 300 295 296 298 298 299 299 301 302 304 306 306 306 304 303 302 303 304 303 301 300
305 303 305 303 300 302 303 303 302 300 299 301 301 301 300 301 300 300 300 300 301 301 298 299 293 298 305 295 295 302 300 297 299 301 302 303 304 304 305 305 303 303 303 302 300

GFSSW_925_thetae_282.txt.gz
Theta_e
307 306 305 306 304 303 301 302 299 298 297 299 303 306 305 305 309 308 308 311 313 311 309 309 309 309 309 306 305 306 303 303 306 308 307 305 306 306 305 306 306 308 308 308 308
308 305 303 303 303 300 300 300 298 298 298 300 304 306 305 306 310 307 307 310 311 310 310 309 308 307 304 304 304 303 302 307 307 307 307 306 307 306 307 308 310 309 309 308 307
308 305 302 300 300 299 299 298 298 297 299 301 305 306 306 310 309 307 308 310 311 310 311 310 309 307 304 304 305 307 306 307 309 309 307 308 308 307 309 311 309 309 309 308 307
308 306 302 300 299 299 298 297 297 297 300 302 306 306 308 310 315 306 309 310 309 309 310 309 306 305 305 306 305 308 308 309 309 309 309 308 307 309 310 310 307 307 309 308 307
308 307 303 300 299 299 298 297 297 298 300 305 306 306 310 306 306 306 310 309 309 309 308 308 306 305 306 306 306 307 308 308 308 308 307 308 310 309 310 308 306 308 309 308 307
308 306 303 300 299 299 297 297 297 298 302 305 306 308 310 310 305 306 309 310 309 309 309 309 307 305 307 307 306 306 308 308 308 310 309 310 311 310 309 306 307 307 309 308 307
307 306 303 300 300 299 297 297 297 299 303 305 306 308 305 306 306 307 310 311 309 309 309 309 308 308 307 307 307 306 308 307 309 310 311 310 312 311 308 307 307 306 308 307 307
307 307 303 300 300 298 297 297 298 302 304 305 306 308 305 304 306 306 309 310 310 309 309 309 309 306 307 306 307 310 308 311 310 309 310 310 311 310 307 307 307 306 307 307 307
307 307 304 300 301 298 297 297 301 302 303 306 307 306 306 305 305 306 307 309 311 311 311 311 309 308 308 312 308 304 309 307 312 309 309 310 310 309 307 307 306 306 307 307 306
307 307 304 301 300 297 297 299 301 302 301 302 303 305 304 305 305 307 307 309 310 310 310 311 306 304 304 306 300 306 307 308 310 311 310 311 310 307 308 307 305 304 306 306 306
307 307 304 302 299 297 298 299 303 302 301 303 303 305 305 305 306 307 307 309 310 307 310 308 305 304 308 308 306 303 301 304 307 309 311 310 308 308 309 306 304 303 305 305 305
307 307 303 302 299 297 299 301 303 302 301 302 303 303 304 304 308 306 307 310 310 307 309 305 307 308 308 308 307 304 307 302 305 308 310 303 309 309 311 308 304 303 303 304 304
307 307 303 303 298 297 300 301 299 303 302 302 302 304 304 305 306 305 307 309 308 310 310 309 309 309 312 311 309 311 312 308 307 307 310 309 307 308 312 309 304 302 300 301 302
307 306 303 302 297 301 300 301 299 304 301 302 301 303 304 305 305 305 304 307 308 309 308 309 309 311 311 310 307 310 308 308 309 310 307 306 304 305 313 310 304 301 299 298 300
307 306 304 301 302 300 302 298 299 305 313 303 302 302 303 306 305 305 305 307 308 308 307 308 310 310 311 309 307 309 307 308 310 312 310 305 308 307 312 312 306 301 300 298 297
308 306 304 301 301 301 299 299 304 307 311 300 302 304 305 304 305 305 305 304 305 306 305 306 306 306 307 306 306 306 308 310 309 307 304 306 307 304 310 313 308 302 299 298 297
308 306 305 298 300 301 298 303 306 307 300 298 301 304 304 305 306 306 306 305 302 299 301 305 307 305 305 307 307 307 307 309 305 304 305 304 305 303 310 311 306 302 299 297 296
308 307 305 299 301 298 303 304 303 299 297 299 303 303 304 303 305 307 304 301 305 303 298 303 303 306 305 306 307 307 306 303 303 307 301 302 304 302 310 308 302 301 298 297 296
308 306 302 300 300 299 302 304 309 299 301 301 302 301 301 303 303 306 303 303 302 304 303 303 304 304 305 305 306 307 303 304 307 297 305 305 301 302 309 308 302 301 299 297 295
304 301 299 299 299 301 303 305 295 301 300 301 302 299 296 298 302 303 304 304 304 304 303 304 304 304 306 305 306 308 305 307 304 299 302 303 303 301 304 305 306 303 299 297 296
304 301 299 298 300 300 302 297 295 297 299 301 300 297 300 299 298 302 303 303 303 304 304 303 302 302 304 305 306 307 307 304 304 304 306 304 304 298 304 303 304 304 300 297 295
299 302 297 298 297 295 292 293 298 296 298 299 298 301 299 300 301 300 302 302 302 302 304 305 304 301 306 305 304 305 306 304 304 307 302 305 302 301 305 304 302 304 301 297 295
299 297 296 296 295 291 290 291 294 296 298 298 299 301 300 301 301 303 300 299 301 304 303 302 299 298 302 304 302 304 304 305 302 300 305 304 304 302 302 304 304 304 301 298 295
298 298 296 293 292 294 292 292 294 295 298 298 299 299 298 299 295 299 300 299 300 303 304 303 302 303 307 306 303 304 306 304 302 301 302 303 302 302 301 302 302 303 301 297 295
297 299 293 294 294 295 297 295 295 295 296 298 299 299 299 297 299 297 298 299 299 303 302 298 296 297 302 301 301 302 304 304 304 302 305 305 303 302 301 300 299 299 299 297 296
300 297 291 289 297 299 298 294 296 296 297 298 298 298 297 299 301 300 299 298 300 301 301 298 293 290 292 296 297 300 299 301 303 303 302 302 303 301 300 298 298 299 300 299 297
300 298 300 298 297 299 298 296 297 297 296 297 298 298 299 299 297 296 296 296 297 299 295 294 290 293 300 289 294 304 298 298 299 299 302 304 303 302 303 302 302 301 298 300 299

GFSSW_925_thetae_285.txt.gz
Theta_e
308 307 305 306 306 305 305 303 299 298 298 300 304 306 305 306 309 308 308 312 314 311 309 309 309 308 307 303 303 302 302 303 305 305 306 305 307 305 304 308 308 308 308 308 309
308 307 304 303 301 300 300 301 299 298 299 301 305 306 305 308 309 306 308 310 310 310 310 309 308 305 303 304 304 301 301 306 306 306 306 306 307 306 308 307 310 308 308 308 308
308 307 305 301 300 300 299 298 298 298 299 302 306 306 307 310 308 307 309 310 309 309 310 310 309 304 305 303 305 306 306 307 308 308 306 307 308 308 309 311 309 308 308 308 308
309 308 305 301 299 299 299 298 298 298 300 303 306 306 309 309 314 306 309 309 308 310 310 306 304 305 305 306 305 308 307 308 308 308 308 308 307 309 309 309 306 305 306 308 308
308 308 307 302 299 299 299 297 297 298 301 305 306 307 310 305 306 307 309 309 309 309 308 306 305 304 306 305 305 307 308 308 307 307 307 307 309 309 310 307 305 305 308 309 308
308 307 306 302 300 299 298 297 298 298 302 305 306 308 309 309 306 306 309 309 309 309 308 307 306 305 305 306 306 306 307 307 308 309 308 310 310 310 309 305 305 305 308 308 308
308 307 307 303 300 300 298 297 298 299 303 305 306 308 304 305 306 307 310 310 309 309 308 308 308 307 306 306 305 306 307 307 308 309 310 309 311 311 308 306 305 306 307 307 307
308 307 307 304 300 300 297 297 298 302 303 305 307 306 304 305 305 307 309 310 310 310 309 309 308 305 306 305 307 309 306 310 310 308 309 308 310 310 306 306 305 305 307 307 307
308 307 307 305 300 300 297 297 300 302 303 305 306 306 306 305 305 306 307 308 310 310 311 311 308 306 308 308 305 302 308 306 310 309 308 309 309 308 306 305 304 303 306 306 306
308 307 306 305 301 299 297 298 301 302 302 302 303 304 304 305 305 306 307 309 309 309 309 308 302 303 303 306 299 303 304 307 307 308 309 310 309 306 307 304 302 302 305 306 306
308 307 307 305 302 299 299 299 301 300 301 302 303 305 305 305 306 306 307 308 309 306 311 306 304 303 307 307 304 300 300 304 306 309 310 309 308 308 309 304 302 301 302 304 305
308 307 307 303 302 299 299 300 301 301 301 301 302 303 303 304 307 305 307 309 307 308 307 304 306 307 307 307 306 305 305 301 303 305 308 301 308 308 310 307 303 301 300 301 302
309 308 307 303 302 298 298 301 301 303 301 301 302 303 303 305 306 305 306 308 308 310 308 305 307 307 311 310 308 311 309 307 306 306 308 308 305 306 311 307 302 300 298 299 300
309 308 307 303 300 298 299 301 299 303 302 303 302 303 304 305 305 305 304 306 307 308 307 308 308 310 310 310 306 310 308 307 309 309 305 304 302 302 311 310 304 300 298 297 297
309 308 307 303 300 301 301 300 300 305 315 303 301 302 303 304 304 304 305 306 307 307 304 307 309 309 310 308 306 309 307 309 310 311 308 303 305 305 311 311 307 301 299 296 296
310 308 306 305 301 301 300 299 303 310 315 301 301 304 304 304 305 304 305 303 304 303 304 306 305 306 306 305 305 305 308 308 306 305 302 304 304 300 307 311 308 302 299 297 296
310 308 306 304 301 301 299 301 311 316 301 299 301 304 303 304 306 305 305 304 303 299 300 305 306 305 304 307 306 306 306 307 305 303 304 303 304 299 306 309 305 301 299 297 295
310 308 305 304 299 300 302 305 317 303 298 299 302 303 303 303 304 306 303 302 304 300 298 301 302 305 304 306 306 307 304 303 304 305 300 301 303 301 308 307 302 299 297 297 296
309 307 305 304 300 299 301 315 314 303 300 301 302 302 301 303 303 305 303 300 302 302 303 304 305 304 304 305 305 307 303 303 305 295 304 304 302 299 308 306 301 300 297 296 295
306 303 300 302 300 301 300 308 302 299 300 301 303 300 298 299 302 303 302 302 303 302 303 304 303 303 305 304 305 307 303 305 303 300 301 302 302 301 303 305 305 301 298 296 294
305 305 299 300 299 298 297 300 296 299 300 301 300 297 300 299 299 302 302 303 302 303 303 303 301 301 303 304 304 305 305 303 303 302 305 304 305 297 301 302 302 304 300 296 294
304 304 298 299 295 288 293 295 297 297 298 299 298 300 300 298 299 299 302 302 301 302 304 302 301 300 303 304 303 305 305 302 304 306 301 304 303 299 301 303 300 301 302 297 294
301 296 296 296 295 290 289 291 295 297 298 298 299 301 299 301 301 302 300 299 301 302 303 303 299 297 301 303 301 304 303 303 301 300 304 303 305 299 300 302 303 301 301 297 294
298 298 296 295 290 294 291 292 295 295 297 297 299 298 299 300 295 300 301 299 300 303 304 302 301 304 308 306 301 301 303 303 302 300 302 302 302 302 301 300 301 303 301 297 295
297 299 296 298 295 294 297 295 296 295 296 297 299 299 300 298 300 296 298 299 300 304 301 298 298 297 300 300 301 303 304 303 302 301 305 305 302 301 301 301 298 297 301 298 296
299 296 294 296 297 297 299 295 300 297 297 298 298 299 298 300 301 300 299 298 302 301 301 298 293 290 293 295 296 301 300 302 302 303 300 301 302 301 299 297 297 297 298 299 297
299 296 300 298 298 298 299 299 298 298 296 298 299 299 298 298 297 296 295 296 298 300 295 294 290 294 299 288 293 303 298 299 301 301 302 304 303 301 302 300 300 300 297 298 298

GFSSW_925_thetae_288.txt.gz
Theta_e
308 308 307 306 306 305 304 300 299 298 299 301 305 306 305 307 308 309 308 311 314 310 309 309 308 306 306 302 302 301 302 302 305 303 305 304 306 305 303 306 307 308 308 308 308
308 308 307 305 304 302 300 299 298 298 299 301 305 306 306 309 308 307 308 309 309 309 310 309 307 304 302 303 303 301 301 306 305 305 305 305 306 306 308 306 309 307 307 307 307
308 308 308 304 301 301 301 299 298 298 299 302 306 306 308 310 308 307 309 309 308 309 310 309 305 304 304 303 304 305 305 306 308 306 305 307 307 307 308 310 308 307 306 306 307
308 308 308 305 301 300 300 299 298 298 300 304 306 306 309 308 313 306 309 308 308 309 309 306 303 305 304 306 305 307 306 307 308 307 307 308 306 308 309 309 306 304 305 307 308
308 308 308 306 302 300 299 298 298 298 301 305 306 307 310 305 306 307 309 308 308 308 307 305 304 304 305 305 305 307 307 307 306 307 306 307 309 308 309 306 304 304 307 308 307
308 308 307 306 302 300 299 297 298 298 302 305 307 308 309 308 306 307 309 309 309 308 308 305 305 304 304 305 305 305 306 306 308 308 307 309 309 309 308 304 304 305 307 308 307
308 307 307 307 303 300 300 298 298 299 303 305 306 307 304 305 305 307 309 310 309 308 307 307 307 306 305 306 304 305 307 308 307 307 309 308 310 310 306 304 303 303 306 307 307
308 308 307 307 304 300 299 297 298 301 303 304 307 305 304 305 305 307 308 309 310 309 309 308 307 304 305 304 305 307 304 309 308 307 308 307 308 309 304 303 302 302 305 306 307
309 308 307 307 305 301 299 297 299 302 302 305 305 305 305 305 305 306 307 308 309 310 311 308 306 306 308 306 303 301 306 305 308 308 308 308 308 307 305 303 301 301 304 306 306
309 308 307 306 305 301 298 298 300 302 302 303 303 304 304 305 305 306 307 309 309 308 309 305 300 301 302 303 298 302 302 306 306 306 308 308 308 306 306 303 301 300 303 303 305
310 308 307 306 304 301 299 300 299 299 301 302 303 304 304 305 306 306 307 308 307 306 310 304 303 302 307 305 301 299 301 303 306 308 308 307 307 307 307 304 301 299 300 300 301
310 308 307 307 303 302 298 298 300 301 301 301 302 302 303 304 306 304 307 308 306 308 306 302 305 305 304 305 306 305 303 301 302 304 306 301 307 307 309 305 302 300 298 298 299
311 308 307 306 302 301 298 299 302 302 301 301 301 303 303 305 305 305 306 307 307 309 306 302 306 306 309 308 309 309 307 306 303 305 307 304 304 305 309 307 303 300 298 297 297
310 308 307 305 302 297 297 298 299 303 303 304 302 302 303 304 304 304 304 306 306 307 306 307 307 309 309 308 305 310 307 307 309 306 305 302 302 301 307 309 306 300 297 296 296
310 308 307 303 298 300 299 300 300 305 315 303 301 301 302 303 303 303 304 305 307 307 302 306 308 309 309 307 305 309 306 308 309 309 305 302 303 303 307 310 307 301 299 296 295
311 309 307 303 301 301 301 299 302 308 316 301 300 304 304 304 304 304 304 302 302 303 303 305 304 305 305 304 304 305 307 306 303 304 302 304 301 298 305 307 308 301 299 297 295
311 308 307 304 300 300 299 301 309 313 302 300 301 303 303 304 305 304 305 305 303 301 300 304 305 304 303 306 305 306 306 305 305 303 303 301 303 299 300 307 306 301 298 296 294
310 308 306 303 299 301 300 302 305 304 302 299 302 302 303 303 304 305 303 303 303 299 297 301 301 305 304 305 306 306 303 304 304 303 301 301 303 301 301 306 304 299 298 296 294
309 307 304 301 299 299 299 303 305 305 301 302 302 302 302 302 303 305 301 301 302 300 302 304 305 303 303 304 304 306 302 302 303 293 302 302 301 298 308 306 301 299 298 296 294
307 303 301 304 300 299 296 301 306 301 300 301 305 300 299 300 303 303 302 301 302 301 302 303 305 302 304 304 304 305 301 305 302 300 303 302 302 301 302 305 304 300 298 296 293
306 304 299 302 300 297 296 294 298 298 300 302 300 298 301 300 299 303 302 302 302 302 302 300 301 301 303 303 303 305 304 301 301 301 304 305 305 297 298 299 302 303 299 297 294
304 303 298 301 299 286 292 294 298 299 298 299 299 299 300 298 300 300 302 301 300 301 304 302 301 300 302 303 302 303 303 301 304 306 300 303 304 299 298 302 301 299 302 297 294
298 295 295 297 301 287 287 291 295 297 299 299 299 300 298 299 300 301 300 298 299 301 302 302 299 297 301 302 300 303 303 301 299 300 303 304 305 298 299 300 300 299 299 298 294
298 298 295 296 292 292 291 293 296 295 298 298 299 298 299 300 295 300 301 299 301 302 304 301 301 304 307 306 301 301 302 301 301 301 302 302 303 302 301 300 299 301 300 298 294
297 299 297 300 299 293 295 296 297 296 296 297 299 300 300 301 300 297 298 299 300 304 301 299 299 297 299 298 301 302 302 302 301 301 305 306 301 302 301 299 298 297 299 299 296
299 298 295 298 299 297 298 296 300 297 297 298 299 299 299 301 302 302 299 299 303 301 301 297 295 290 293 294 295 302 301 302 301 302 298 300 300 299 298 298 296 296 296 299 297
298 296 302 302 300 299 297 298 299 299 297 298 299 300 299 299 298 296 295 296 299 300 296 295 291 295 299 287 294 302 299 301 301 300 301 303 302 300 301 299 299 298 296 296 296

GFSSW_925_thetae_291.txt.gz
Theta_e
308 308 308 307 306 306 306 303 301 299 299 301 305 306 305 309 309 309 307 311 314 310 309 308 307 305 305 302 301 300 303 303 303 303 304 304 306 305 303 306 306 308 309 308 307
308 308 309 308 304 302 303 300 298 298 299 302 306 306 307 309 308 307 307 309 309 309 309 308 306 303 302 304 304 301 303 304 304 303 304 305 306 306 308 307 309 308 307 306 306
309 308 308 308 304 300 300 300 298 298 299 303 305 306 308 310 307 306 308 308 308 309 310 308 304 304 304 303 304 304 305 306 307 305 304 306 307 307 308 310 308 308 307 306 307
309 308 308 308 306 301 300 299 298 298 299 304 305 306 309 308 312 306 308 308 308 309 307 305 303 304 304 305 304 307 306 307 307 307 306 307 306 307 308 309 306 305 305 306 308
309 308 308 307 306 301 300 298 297 298 300 305 306 308 310 305 306 306 309 308 308 308 306 304 304 303 305 305 305 306 306 306 306 306 306 307 308 308 308 306 304 303 306 308 307
309 308 308 307 306 302 300 298 297 298 301 305 307 307 308 307 306 307 309 308 308 307 306 304 304 303 304 305 305 305 305 307 307 308 307 309 309 308 307 304 303 302 305 306 307
310 309 307 307 306 302 300 299 297 299 302 304 306 306 304 305 305 307 309 309 308 308 306 307 306 305 304 306 303 304 308 307 306 307 309 307 309 309 305 303 302 302 304 306 308
311 309 307 307 306 303 300 298 298 300 303 304 306 305 304 305 305 307 308 309 310 309 308 307 307 304 304 303 303 306 304 309 308 307 307 306 309 308 304 302 302 302 303 305 305
312 309 308 307 306 303 300 297 299 302 302 304 305 304 305 305 305 306 307 308 310 310 309 306 305 306 306 305 303 300 306 304 308 307 308 307 309 307 305 303 302 301 302 302 303
313 310 308 307 306 303 299 298 301 302 302 303 303 303 304 304 305 306 307 309 308 308 307 303 300 302 301 303 301 301 303 305 305 306 307 308 309 306 306 305 302 300 300 300 301
313 310 309 307 306 302 298 300 299 300 301 302 303 304 304 304 305 306 307 308 306 306 308 302 302 302 306 303 299 299 301 302 305 307 307 308 306 307 307 306 302 300 299 300 300
314 311 309 307 306 302 298 297 299 300 302 301 302 302 303 304 305 304 307 307 307 308 304 303 305 304 302 305 306 303 303 301 303 302 305 301 306 305 306 307 303 300 299 298 298
314 311 309 307 305 302 298 299 301 301 301 301 301 303 303 304 305 305 306 306 307 308 304 302 306 304 307 307 308 307 305 305 303 305 306 302 304 304 306 307 304 301 298 297 297
315 312 308 307 302 298 297 298 300 303 306 306 301 302 303 303 304 303 304 305 305 305 305 306 306 308 308 306 305 309 306 306 309 305 304 300 303 301 305 306 307 305 298 296 296
315 312 308 306 299 298 298 299 300 307 322 304 301 301 302 302 302 304 303 304 306 305 301 306 307 308 308 306 304 308 305 308 309 308 304 301 300 302 304 307 307 304 299 297 295
316 311 307 304 299 299 300 300 303 314 317 301 300 303 303 303 304 303 304 301 301 303 303 305 304 304 305 303 303 303 306 305 302 303 303 302 299 299 303 306 308 303 299 297 295
316 311 308 302 301 301 299 302 310 313 302 301 301 303 303 304 304 304 305 304 303 303 301 304 305 303 302 305 305 305 305 305 306 303 304 301 302 300 298 303 307 302 299 297 294
316 310 307 304 300 299 301 305 308 302 301 299 302 302 304 303 304 304 304 303 303 300 298 302 302 304 303 304 305 304 302 304 304 303 301 300 302 302 297 305 305 300 298 297 295
315 308 305 302 300 299 304 304 306 301 302 302 302 303 302 303 303 304 303 303 303 299 303 302 304 302 303 303 303 305 302 300 302 292 301 301 301 299 305 306 303 301 298 297 295
308 304 302 300 299 300 303 307 299 303 300 302 306 302 301 302 304 303 301 300 302 299 300 301 305 302 303 303 303 303 300 305 302 301 303 302 302 303 301 303 304 302 299 297 295
306 304 300 300 299 303 304 299 297 298 300 302 302 299 301 302 302 303 302 301 300 301 301 299 302 301 302 303 303 304 304 300 300 301 305 306 305 297 298 299 302 304 301 298 296
303 303 299 300 300 299 299 291 298 299 298 299 300 300 301 300 301 301 302 300 299 300 303 300 301 301 302 301 301 302 301 300 305 305 299 302 305 298 296 299 298 299 301 299 296
301 296 295 299 304 299 291 290 296 298 299 299 300 300 298 300 301 302 300 299 299 300 302 301 298 297 300 301 299 303 303 300 299 300 302 305 305 297 297 299 298 300 297 299 297
297 298 295 295 296 299 293 296 296 295 299 299 299 299 300 299 296 300 300 299 300 301 303 300 300 303 306 305 301 302 302 300 301 302 302 302 304 302 298 298 298 298 298 298 297
297 299 298 300 301 298 299 297 299 297 296 298 299 301 301 301 301 298 299 300 301 304 300 299 297 297 298 297 300 300 302 301 300 302 307 306 301 302 300 298 297 296 299 298 297
299 298 296 298 301 297 299 299 299 298 298 299 300 300 300 302 303 303 300 301 304 301 300 296 294 290 293 293 296 302 301 302 301 301 298 300 301 298 299 299 298 297 295 299 298
298 297 303 302 301 298 299 300 299 299 297 299 299 301 301 300 298 296 296 297 300 301 298 294 290 295 298 287 293 301 299 301 301 300 299 303 303 300 301 298 297 297 295 297 298